Current Version              Previous Version:    01  02  03  04  05  06  07  08  09  10  11  12  13  14  15  16  17  18  19  20  21  22  23  24  25  26  27  28  29  30  
   31  32  33  34  35  36  37  38  39  40  41  42  43  44  45  46  47  48  49  50  51  52  53  54  55  56  57  58  59  60  

[Printable]
557
ASUS44 KFWD 020801
RWRTX
NORTH TEXAS HOURLY WEATHER ROUNDUP
NATIONAL WEATHER SERVICE FORT WORTH TX
300 AM CDT TUE SEP 02 2014

NOTE: "FAIR" INDICATES FEW OR NO CLOUDS BELOW 12,000 FEET WITH NO
SIGNIFICANT WEATHER AND/OR OBSTRUCTIONS TO VISIBILITY.

TXZ118-119-020900-
DALLAS/FORT WORTH METROPLEX

CITY           SKY/WX    TMP DP  RH WIND       PRES   REMARKS
DFW AIRPORT    CLEAR     83  70  64 S15       29.86F
DALLAS LOVE    CLEAR     83  71  67 S14       29.87F
FTW MEACHAM    CLEAR     84  69  60 S18G24    29.86F
DAL-EXECUTIVE  CLEAR     83  70  64 S8G20     29.88F
FTW-ALLIANCE   CLEAR     82  68  62 S12G21    29.85F
FTW-NAS-JRB    CLEAR     86  67  52 S17G23    29.91F
FTW-SPINKS     CLEAR     82  68  63 S16       29.90F
ARLINGTON      CLEAR     82  69  64 S14       29.88F
GRAND PRAIRIE  CLEAR     83  68  61 S12       29.89F
ADDISON        CLEAR     83  69  62 S12       29.89F
MESQUITE       CLEAR     80  72  74 S14       29.89F
LANCASTER      CLEAR     80  70  72 S8G16     29.90F
$$

TXZ091>094-102>105-117-120-121-131>134-020900-
NORTH CENTRAL TEXAS

CITY           SKY/WX    TMP DP  RH WIND       PRES   REMARKS
SHRMAN/DENISON CLEAR     81  70  69 S14       29.88R
GAINESVILLE    CLEAR     81  69  66 S13G20    29.87F
BOWIE          CLEAR     81  68  65 S12       29.85F
BRIDGEPORT     CLEAR     83  65  55 S10G18    29.87F
DECATUR        CLEAR     82  67  60 S15       29.87F
DENTON         CLEAR     83  68  60 S15       29.86F
MCKINNEY       CLEAR     81  72  74 S16       29.87F
GREENVILLE     CLEAR     81  70  69 S13G18    29.89F
ROCKWALL       CLEAR     79  73  79 S8        29.88F
TERRELL        CLEAR     82  75  79 S14       29.90F
WAXAHACHIE     CLEAR     79  68  68 S10       29.91F
CLEBURNE       CLEAR     81  72  74 S13G18    29.91F
GRANBURY       CLEAR     84  68  58 S14G20    29.89F
$$

TXZ083>090-098>101-113>116-127>130-139>142-154-155-020900-
WESTERN NORTH TEXAS

CITY           SKY/WX    TMP DP  RH WIND       PRES   REMARKS
WICHITA FALLS  CLEAR     84  68  58 S18G24    29.82R
WF-KICKAPOO    CLEAR     84  66  54 S9        29.84R
VERNON         CLEAR     84  64  49 S8        29.84R
ABILENE        CLEAR     82  65  56 S16       29.89S
ABILENE-DYESS  CLEAR     82  66  58 S20       29.88S
BRECKENRIDGE   CLEAR     83  67  57 S14G22    29.87S
MINERAL WELLS  CLEAR     82  68  62 S13       29.87F
STEPHENVILLE   CLEAR     80  68  67 S9        29.94S
COMANCHE         N/A     80  67  66 S12       29.92S
BROWNWOOD      PTCLDY    81  68  65 S9        29.91S
COLEMAN        CLEAR     80  66  63 S12       29.92S
BRADY          CLEAR     79  70  73 SE9       29.93F
$$

TXZ143>147-156>162-174-175-020900-
CENTRAL TEXAS

CITY           SKY/WX    TMP DP  RH WIND       PRES   REMARKS
WACO           CLEAR     81  71  71 S17       29.92S
WACO-MCGREGOR  CLEAR     79  66  65 S14       29.93F
HILLSBORO      CLEAR     81  69  67 S14       29.91F
CORSICANA      CLEAR     80  73  79 S13       29.93F
MEXIA          CLEAR     76  73  90 S5        29.93S
HEARNE           N/A     77  74  89 SE3       29.94S
CAMERON        PTCLDY    78  74  86 CALM      29.93S
TEMPLE         CLEAR     79  66  65 S12       29.93S
KILLEEN        CLEAR     79  72  78 SE13      29.94R
KILLEEN-SKYLRK CLEAR     79  68  69 S10       29.94R
FORT HOOD      CLEAR     81  72  74 SE10      29.94R
HAMILTON       CLEAR     79  69  71 S10G16    29.94S
LAMPASAS       CLEAR     78  71  78 S6        29.94S
$$

TXZ095>097-106>112-122>126-135>138-148>153-164>167-020900-
EAST TEXAS

CITY           SKY/WX    TMP DP  RH WIND       PRES   REMARKS
PARIS          CLEAR     77  68  73 S9        29.90F
SULPHUR SPRNGS CLEAR     81  73  76 S12G17    29.91F
MOUNT PLEASANT CLEAR     79  74  84 S7        29.92F
GILMER         CLEAR     81  77  89 S10       29.94F
MINEOLA        CLEAR     81  75  83 S7        29.92F
TYLER          CLEAR     79  74  84 S12       29.92F
LONGVIEW       CLEAR     78  74  87 S9        29.94F
MARSHALL       PTCLDY    78  76  91 S6        29.96F
ATHENS         CLEAR     77  72  83 S8        29.92F
PALESTINE      CLEAR     77  74  92 SE5       29.96S
JACKSONVILLE   MOCLDY    78  76  94 S8        29.98F
HENDERSON      CLOUDY    77  75  95 S6        29.96F
NACOGDOCHES    MOCLDY    77  75  94 SE6       29.97F
LUFKIN         CLOUDY    80  75  84 E3        29.96S
$$

SUPPLEMENTAL OBSERVATIONS (CENTRAL)

CITY           SKY/WX    TMP DP  RH WIND       PRES   REMARKS
$$

SUPPLEMENTAL OBSERVATIONS (WEST)

CITY           SKY/WX    TMP DP  RH WIND       PRES   REMARKS
$$

SUPPLEMENTAL OBSERVATIONS (EAST)

CITY           SKY/WX    TMP DP  RH WIND       PRES   REMARKS
$$

SUPPLEMENTAL OBSERVATIONS ARE A COLLECTION OF AUTOMATED INSTRUMENTS
THAT ARE MAINTAINED BY A VARIETY OF FEDERAL AND STATE AGENCIES.
CERTAIN ELEMENTS...SUCH AS HUMIDITY VALUES AND SUSTAINED WIND
SPEEDS...MAY BE APPROXIMATED.